Location: Oberkirch
(48.5323°N, 8.0787°E)
Time: 19:32:36
(UTC+00:00)

Transit 2A - All Passes

Search period start: 15 February 2026 00:00
Search period end: 25 February 2026 00:00
Orbit: 589 x 955 km, 66.7° (Epoch: 15 February)

Date Brightness Start Highest point End Pass type
(mag) Time Alt. Az. Time Alt. Az. Time Alt. Az.
15 Feb - 11:38:20 10° SSE 11:43:15 26° ESE 11:48:18 10° NE daylight
15 Feb - 13:19:38 10° SW 13:25:50 74° NW 13:32:12 10° NNE daylight
15 Feb - 15:04:58 10° W 15:10:02 25° NNW 15:15:06 10° NNE daylight
15 Feb - 16:52:08 10° NW 16:55:27 14° N 16:58:45 10° NNE daylight
15 Feb - 18:36:49 10° NNW 18:41:07 19° NNE 18:45:15 10° ENE visible
15 Feb - 20:19:48 10° NNW 20:25:47 49° NE 20:31:16 10° ESE visible
15 Feb - 22:03:16 10° NW 22:08:46 38° WSW 22:13:49 10° S visible
16 Feb - 11:03:13 10° SE 11:07:12 18° ESE 11:11:16 10° ENE daylight
16 Feb - 12:43:15 10° SSW 12:49:26 84° ESE 12:55:49 10° NE daylight
16 Feb - 14:27:52 10° W 14:33:18 30° NW 14:38:46 10° NNE daylight
16 Feb - 16:14:58 10° NW 16:18:32 15° N 16:22:03 10° NNE daylight
16 Feb - 18:00:23 10° NNW 18:04:15 17° NNE 18:08:01 10° NE visible
16 Feb - 19:43:29 10° NNW 19:49:12 38° NE 19:54:30 10° ESE visible
16 Feb - 21:26:42 10° NW 21:32:35 54° WSW 21:37:56 10° SSE visible
17 Feb - 10:28:58 10° ESE 10:31:14 12° E 10:33:31 10° ENE daylight
17 Feb - 12:07:03 10° SSW 12:13:07 63° ESE 12:19:23 10° NE daylight
17 Feb - 13:50:54 10° WSW 13:56:38 37° NW 14:02:28 10° NNE daylight
17 Feb - 15:37:43 10° NW 15:41:38 17° NNW 15:45:30 10° NNE daylight
17 Feb - 17:23:50 10° NNW 17:27:21 15° N 17:30:47 10° NE visible
17 Feb - 19:07:10 10° NNW 19:12:33 30° NE 19:17:36 10° E visible
17 Feb - 20:50:13 10° NW 20:56:18 76° WSW 21:01:49 10° SSE visible
17 Feb - 22:35:27 10° WNW 22:38:15 14° W 22:40:58 10° SW visible
18 Feb - 11:31:05 10° S 11:36:53 45° ESE 11:42:52 10° NE daylight
18 Feb - 13:14:04 10° WSW 13:20:04 47° NW 13:26:10 10° NNE daylight
18 Feb - 15:00:25 10° WNW 15:04:46 19° NNW 15:09:04 10° NNE daylight
18 Feb - 16:47:08 10° NNW 16:50:26 14° N 16:53:39 10° NE daylight
18 Feb - 18:30:50 10° NNW 18:35:50 25° NNE 18:40:33 10° E visible
18 Feb - 20:13:49 10° NW 20:19:57 80° NE 20:25:30 10° SE visible
18 Feb - 21:58:04 10° WNW 22:02:16 20° WSW 22:06:14 10° SSW visible
19 Feb - 10:55:20 10° S 11:00:42 33° ESE 11:06:14 10° NE daylight
19 Feb - 12:37:23 10° SW 12:43:33 61° NW 12:49:50 10° NNE daylight
19 Feb - 14:23:10 10° WNW 14:27:57 22° NNW 14:32:42 10° NNE daylight
19 Feb - 16:10:16 10° NNW 16:13:29 14° N 16:16:40 10° NNE daylight
19 Feb - 17:54:30 10° NNW 17:59:04 21° NNE 18:03:25 10° ENE visible
19 Feb - 19:37:27 10° NNW 19:43:30 59° NE 19:49:01 10° SE visible
19 Feb - 21:21:10 10° NW 21:26:13 29° WSW 21:30:53 10° SSW visible
20 Feb - 10:19:54 10° SSE 10:24:36 23° ESE 10:29:25 10° ENE daylight
20 Feb - 12:00:52 10° SW 12:07:06 80° NW 12:13:28 10° NE daylight
20 Feb - 13:45:59 10° W 13:51:11 26° NNW 13:56:22 10° NNE daylight
20 Feb - 15:33:12 10° NW 15:36:33 15° N 15:39:51 10° NNE daylight
20 Feb - 17:18:07 10° NNW 17:22:14 18° NNE 17:26:12 10° ENE visible
20 Feb - 19:01:07 10° NNW 19:06:59 45° NE 19:12:21 10° ESE visible
20 Feb - 20:44:29 10° NW 20:50:05 42° WSW 20:55:11 10° S visible
21 Feb - 09:44:58 10° SE 09:48:35 16° ESE 09:52:14 10° ENE daylight
21 Feb - 11:24:32 10° SSW 11:30:43 77° ESE 11:37:05 10° NE daylight
21 Feb - 13:08:55 10° W 13:14:29 32° NW 13:20:03 10° NNE daylight
21 Feb - 14:55:59 10° NW 14:59:38 16° NNW 15:03:13 10° NNE daylight
21 Feb - 16:41:38 10° NNW 16:45:21 16° NNE 16:48:57 10° NE daylight
21 Feb - 18:24:48 10° NNW 18:30:23 35° NE 18:35:33 10° ESE visible
21 Feb - 20:07:57 10° NW 20:13:52 60° WSW 20:19:13 10° SSE visible
22 Feb - 09:11:27 10° ESE 09:12:38 11° E 09:13:49 10° E daylight
22 Feb - 10:48:24 10° SSW 10:54:26 57° ESE 11:00:37 10° NE daylight
22 Feb - 12:31:59 10° WSW 12:37:50 39° NW 12:43:44 10° NNE daylight
22 Feb - 14:18:42 10° WNW 14:22:44 17° NNW 14:26:43 10° NNE daylight
22 Feb - 16:05:03 10° NNW 16:08:26 15° N 16:11:44 10° NE daylight
22 Feb - 17:48:29 10° NNW 17:53:42 28° NNE 17:58:35 10° E visible
22 Feb - 19:31:30 10° NW 19:37:34 83° WSW 19:43:03 10° SSE visible
22 Feb - 21:16:21 10° WNW 21:19:37 15° WSW 21:22:44 10° SW visible
23 Feb - 10:12:29 10° S 10:18:12 41° ESE 10:24:05 10° NE daylight
23 Feb - 11:55:11 10° WSW 12:01:17 51° NW 12:07:26 10° NNE daylight
23 Feb - 13:41:24 10° WNW 13:45:53 20° NNW 13:50:18 10° NNE daylight
23 Feb - 15:28:18 10° NNW 15:31:30 14° N 15:34:39 10° NE daylight
23 Feb - 17:12:09 10° NNW 17:16:59 23° NNE 17:21:31 10° E daylight
23 Feb - 18:55:06 10° NNW 19:01:11 73° NE 19:06:40 10° SE visible
23 Feb - 20:39:10 10° WNW 20:43:36 23° WSW 20:47:46 10° SSW visible
24 Feb - 09:36:50 10° SSE 09:42:03 29° ESE 09:47:23 10° NE daylight
24 Feb - 11:18:33 10° SW 11:24:46 66° NW 11:31:06 10° NNE daylight
24 Feb - 13:04:10 10° W 13:09:04 23° NNW 13:13:57 10° NNE daylight
24 Feb - 14:51:21 10° NW 14:54:34 14° N 14:57:43 10° NNE daylight
24 Feb - 16:35:48 10° NNW 16:40:11 20° NNE 16:44:21 10° ENE daylight
24 Feb - 18:18:44 10° NNW 18:24:42 54° NE 18:30:08 10° SE visible
24 Feb - 20:02:21 10° NW 20:07:32 33° WSW 20:12:18 10° S visible
